FW7499 Weather Reports


Display with metric or nautical units.
time (UTC)temp
F
wind
direction
speed
MPH
gust
MPH
rain 1hr
in
rain 24hr
in
rain mn
in
humidity
%
barometer
mb
20260504221503 76 337 3.0 10.0 0.00 0.00 0.00 31 1003.2
20260504221007 77 14 4.0 10.0 0.00 0.00 0.00 30 1003.1
20260504220503 77 323 4.0 11.0 0.00 0.00 0.00 30 1003.0
20260504220003 76 333 4.0 13.0 0.00 0.00 0.00 31 1003.0
20260504215503 77 328 5.0 13.0 0.00 0.00 0.00 30 1003.0
20260504215007 77 326 5.0 13.0 0.00 0.00 0.00 30 1002.8
20260504214504 78 333 4.0 10.0 0.00 0.00 0.00 32 1002.9
20260504214003 78 115 2.0 10.0 0.00 0.00 0.00 30 1002.8
20260504213503 78 294 4.0 14.0 0.00 0.00 0.00 32 1002.8
20260504213005 78 348 6.0 14.0 0.00 0.00 0.00 29 1002.8
20260504212504 79 5 4.0 10.0 0.00 0.00 0.00 31 1002.7
20260504212004 79 334 3.0 9.0 0.00 0.00 0.00 33 1002.7
20260504211513 79 349 2.0 10.0 0.00 0.00 0.00 32 1002.6
20260504211003 79 342 3.0 12.0 0.00 0.00 0.00 34 1002.6
20260504210505 78 355 6.0 13.0 0.00 0.00 0.00 33 1002.6
20260504210011 79 329 5.0 13.0 0.00 0.00 0.00 32 1002.6
20260504205506 79 351 4.0 10.0 0.00 0.00 0.00 33 1002.6
20260504205004 79 340 3.0 8.0 0.00 0.00 0.00 36 1002.5
20260504204507 79 36 4.0 13.0 0.00 0.00 0.00 32 1002.5
20260504204004 79 346 3.0 13.0 0.00 0.00 0.00 34 1002.5
20260504203506 80 324 4.0 12.0 0.00 0.00 0.00 37 1002.5
20260504203004 80 327 2.0 9.0 0.00 0.00 0.00 38 1002.4
20260504202508 80 360 2.0 12.0 0.00 0.00 0.00 37 1002.4
20260504202004 80 347 3.0 12.0 0.00 0.00 0.00 37 1002.4
20260504201505 80 301 6.0 11.0 0.00 0.00 0.00 37 1002.4
20260504201009 79 154 3.0 11.0 0.00 0.00 0.00 35 1002.4
20260504200506 80 360 3.0 11.0 0.00 0.00 0.00 36 1002.4
20260504200006 80 326 6.0 11.0 0.00 0.00 0.00 36 1002.4
20260504195507 80 360 3.0 9.0 0.00 0.00 0.00 36 1002.4
20260504195003 80 304 2.0 15.0 0.00 0.00 0.00 36 1002.3
20260504194521 80 349 7.0 15.0 0.00 0.00 0.00 36 1002.3
20260504194004 80 335 5.0 14.0 0.00 0.00 0.00 37 1002.2
20260504193507 80 306 5.0 14.0 0.00 0.00 0.00 37 1002.2
20260504193019 80 342 4.0 12.0 0.00 0.00 0.00 37 1002.2
20260504192504 81 313 4.0 11.0 0.00 0.00 0.00 39 1002.2
20260504192004 80 5 3.0 13.0 0.00 0.00 0.00 35 1002.1
20260504191520 80 302 7.0 13.0 0.00 0.00 0.00 33 1002.1
20260504191006 81 360 6.0 12.0 0.00 0.00 0.00 35 1002.1
20260504190504 81 318 5.0 12.0 0.00 0.00 0.00 34 1002.0
20260504190011 81 10 5.0 12.0 0.00 0.00 0.00 33 1001.9
20260504185504 81 322 6.0 12.0 0.00 0.00 0.00 32 1001.8
20260504185005 82 311 4.0 11.0 0.00 0.00 0.00 34 1001.8
20260504184509 82 313 6.0 11.0 0.00 0.00 0.00 30 1001.8
20260504184009 82 323 4.0 14.0 0.00 0.00 0.00 32 1001.7
20260504183508 82 327 3.0 14.0 0.00 0.00 0.00 32 1001.7
20260504183006 82 325 3.0 11.0 0.00 0.00 0.00 35 1001.6
20260504182505 81 319 5.0 11.0 0.00 0.00 0.00 33 1001.7
20260504182011 79 290 2.0 10.0 0.00 0.00 0.00 36 1001.7
20260504181506 80 321 3.0 11.0 0.00 0.00 0.00 32 1001.7
20260504181004 80 313 6.0 11.0 0.00 0.00 0.00 32 1001.7
20260504180505 82 319 1.0 9.0 0.00 0.00 0.00 33 1001.7
20260504180010 82 302 3.0 9.0 0.00 0.00 0.00 35 1001.7
20260504175504 81 333 4.0 9.0 0.00 0.00 0.00 34 1001.8
20260504175005 80 319 2.0 8.0 0.00 0.00 0.00 34 1001.8
20260504174512 80 253 3.0 11.0 0.00 0.00 0.00 31 1001.8
20260504174006 80 327 4.0 13.0 0.00 0.00 0.00 33 1001.8
20260504173505 80 319 5.0 13.0 0.00 0.00 0.00 33 1001.9
20260504173015 80 321 6.0 11.0 0.00 0.00 0.00 33 1002.0
20260504172507 80 282 4.0 16.0 0.00 0.00 0.00 34 1001.9
20260504172002 80 328 6.0 16.0 0.00 0.00 0.00 33 1001.9
20260504171512 80 314 6.0 12.0 0.00 0.00 0.00 35 1002.1
20260504171008 80 300 4.0 9.0 0.00 0.00 0.00 38 1002.1
20260504170510 78 240 1.0 9.0 0.00 0.00 0.00 37 1002.0
20260504151014 70 309 4.0 7.0 0.00 0.00 0.00 46 1002.2
20260504150507 70 324 2.0 7.0 0.00 0.00 0.00 44 1002.2
20260504141007 64 355 3.0 5.0 0.00 0.00 0.00 51 1002.6
20260504140511 64 302 2.0 6.0 0.00 0.00 0.00 55 1002.7
20260504130503 56 346 0.0 3.0 0.00 0.00 0.00 71 1002.5
20260504110506 47 277 0.0 0.0 0.00 0.00 0.00 82 1002.8
20260504100505 48 277 0.0 0.0 0.00 0.00 0.00 81 1002.7
20260504081513 50 277 0.0 0.0 0.00 0.00 0.00 75 1004.0
20260504081003 50 277 0.0 0.0 0.00 0.00 0.00 77 1004.1
20260504080511 50 277 0.0 0.0 0.00 0.00 0.00 78 1004.2
20260504050511 56 277 0.0 0.0 0.00 0.00 0.00 62 1006.8
20260504050016 56 277 0.0 0.0 0.00 0.00 0.00 61 1006.7
20260504045505 56 277 0.0 0.0 0.00 0.00 0.00 63 1006.8
20260504045007 56 277 0.0 0.0 0.00 0.00 0.00 63 1006.8
20260504044522 56 277 0.0 0.0 0.00 0.00 0.00 62 1006.9
20260504044007 56 277 0.0 0.0 0.00 0.00 0.00 63 1006.9
20260504043507 57 277 0.0 0.0 0.00 0.00 0.00 61 1007.0
20260504043025 57 277 0.0 0.0 0.00 0.00 0.00 60 1007.0
20260504042504 58 277 0.0 0.0 0.00 0.00 0.00 59 1007.0
20260504042007 58 277 0.0 0.0 0.00 0.00 0.00 57 1007.0
20260504041519 58 277 0.0 0.0 0.00 0.00 0.00 58 1007.1
20260504041007 59 277 0.0 0.0 0.00 0.00 0.00 57 1007.1
20260504040505 59 277 0.0 0.0 0.00 0.00 0.00 55 1007.2
20260504040015 59 277 0.0 0.0 0.00 0.00 0.00 56 1007.3
20260504035511 59 277 0.0 0.0 0.00 0.00 0.00 56 1007.4
20260504035010 58 277 0.0 0.0 0.00 0.00 0.00 58 1007.4
20260504034516 58 277 0.0 0.0 0.00 0.00 0.00 58 1007.4
20260504034010 58 277 0.0 0.0 0.00 0.00 0.00 59 1007.5
20260504033506 59 277 0.0 0.0 0.00 0.00 0.00 58 1007.6
20260504033022 59 277 0.0 0.0 0.00 0.00 0.00 58 1007.6
20260504032506 59 277 0.0 0.0 0.00 0.00 0.00 58 1007.5
20260504032008 60 277 0.0 0.0 0.00 0.00 0.00 56 1007.5
20260504031506 60 277 0.0 0.0 0.00 0.00 0.00 54 1007.6
20260504031002 61 277 0.0 0.0 0.00 0.00 0.00 53 1007.6
20260504030506 60 277 0.0 0.0 0.00 0.00 0.00 53 1007.6
20260504030007 61 277 0.0 0.0 0.00 0.00 0.00 54 1007.6
20260504025504 61 277 0.0 0.0 0.00 0.00 0.00 51 1007.7
20260504025005 62 277 0.0 0.0 0.00 0.00 0.00 52 1007.7
20260504024507 63 277 0.0 0.0 0.00 0.00 0.00 46 1007.7
20260504024006 64 277 0.0 0.0 0.00 0.00 0.00 45 1007.7
20260504023503 64 277 0.0 0.0 0.00 0.00 0.00 44 1007.8
20260504023003 64 277 0.0 0.0 0.00 0.00 0.00 44 1007.8
20260504022503 64 277 0.0 0.0 0.00 0.00 0.00 45 1007.8
20260504022004 64 277 0.0 0.0 0.00 0.00 0.00 44 1007.8
20260504021504 64 277 0.0 0.0 0.00 0.00 0.00 43 1007.9
20260504021009 65 277 0.0 0.0 0.00 0.00 0.00 42 1007.8
20260504020503 66 277 0.0 0.0 0.00 0.00 0.00 41 1007.9
20260504020007 66 277 0.0 0.0 0.00 0.00 0.00 41 1008.0
20260504015503 66 277 0.0 0.0 0.00 0.00 0.00 40 1008.0
20260504015003 66 277 0.0 0.0 0.00 0.00 0.00 40 1008.0
20260504014519 67 277 0.0 0.0 0.00 0.00 0.00 40 1008.1
20260504014003 67 277 0.0 0.0 0.00 0.00 0.00 40 1008.0
20260504013504 67 277 0.0 0.0 0.00 0.00 0.00 40 1008.0
20260504013015 67 277 0.0 0.0 0.00 0.00 0.00 39 1008.0
20260504012505 68 277 0.0 1.0 0.00 0.00 0.00 38 1008.0
20260504012003 68 277 0.0 1.0 0.00 0.00 0.00 38 1008.0
20260504011510 69 277 0.0 1.0 0.00 0.00 0.00 38 1008.0
20260504011004 69 268 0.0 2.0 0.00 0.00 0.00 38 1008.0
20260504010505 69 269 0.0 4.0 0.00 0.00 0.00 37 1008.1
20260504010006 70 271 0.0 4.0 0.00 0.00 0.00 37 1008.2
20260504005503 70 278 0.0 3.0 0.00 0.00 0.00 37 1008.2
20260504005003 70 281 0.0 3.0 0.00 0.00 0.00 36 1008.3
20260504004507 70 294 0.0 3.0 0.00 0.00 0.00 35 1008.3
20260504004005 71 303 0.0 3.0 0.00 0.00 0.00 36 1008.3
20260504003507 71 303 1.0 3.0 0.00 0.00 0.00 36 1008.3
20260504003004 71 274 0.0 3.0 0.00 0.00 0.00 34 1008.3
20260504002504 71 274 0.0 3.0 0.00 0.00 0.00 36 1008.3
20260504002006 71 327 0.0 4.0 0.00 0.00 0.00 36 1008.4
20260504001521 71 327 0.0 4.0 0.00 0.00 0.00 37 1008.5
20260504001003 72 310 0.0 4.0 0.00 0.00 0.00 36 1008.5
20260504000504 72 58 0.0 3.0 0.00 0.00 0.00 35 1008.5
20260504000037 72 265 0.0 3.0 0.00 0.00 0.00 33 1008.6
20260503235505 72 263 0.0 4.0 0.00 0.00 0.00 36 1008.6
20260503235003 73 263 0.0 7.0 0.00 0.00 0.00 34 1008.6
20260503234510 73 284 1.0 7.0 0.00 0.00 0.00 33 1008.6
20260503234004 73 265 1.0 6.0 0.00 0.00 0.00 33 1008.7
20260503233502 73 311 0.0 6.0 0.00 0.00 0.00 35 1008.7
20260503233019 74 335 2.0 4.0 0.00 0.00 0.00 35 1008.7
20260503232503 74 307 0.0 4.0 0.00 0.00 0.00 33 1008.7
20260503232007 74 249 0.0 4.0 0.00 0.00 0.00 32 1008.8
20260503231512 74 259 0.0 4.0 0.00 0.00 0.00 31 1008.8
20260503231006 75 260 1.0 4.0 0.00 0.00 0.00 34 1008.8
20260503230506 75 259 0.0 5.0 0.00 0.00 0.00 31 1008.8
20260503230008 75 273 1.0 7.0 0.00 0.00 0.00 32 1008.9
20260503225506 75 298 1.0 7.0 0.00 0.00 0.00 32 1008.9
20260503225007 75 325 2.0 7.0 0.00 0.00 0.00 33 1008.8
20260503224507 76 344 3.0 7.0 0.00 0.00 0.00 33 1008.8
20260503224007 76 333 1.0 5.0 0.00 0.00 0.00 35 1008.8
20260503223504 75 355 1.0 3.0 0.00 0.00 0.00 31 1008.8
20260503223010 76 351 0.0 2.0 0.00 0.00 0.00 32 1008.9
20260503222502 76 348 1.0 4.0 0.00 0.00 0.00 32 1008.9
20260503222006 76 348 0.0 5.0 0.00 0.00 0.00 31 1009.0